DateTimeUTC,F1_A11,F1_S11,BsB_S11,BsG_S11,BsR_S11,BbsB_S11,BbsG_S11,BbsR_S11,BaB_A11,BaG_A11,BaR_A11,Tu_S11,T_S11,Uu_S11,U_S11,P_S11,T1_A11
2021-07-12T10:00:00Z,00000200,20000000,,,,,,,0000.03,-000.03,0000.15,18.6,24.9,10.3,07.0,0673.7,31.0
2021-07-12T10:01:00Z,00000200,20000000,,,,,,,0000.07,0000.04,-000.12,18.6,25.0,10.4,07.0,0673.7,31.0
2021-07-12T10:02:00Z,00000200,20000000,,,,,,,0000.07,0000.08,-000.07,18.6,25.0,10.4,07.0,0673.7,31.0
2021-07-12T10:03:00Z,00000200,60000000,,,,,,,-000.01,0000.37,0000.00,18.6,25.0,10.4,07.0,0673.7,31.0
2021-07-12T10:04:00Z,00000200,40000000,0001.67,0000.78,0000.43,0000.16,0000.03,0000.23,0000.12,-000.14,0000.00,18.7,24.8,10.2,07.0,0674.6,31.0
2021-07-12T10:05:00Z,00000200,00000000,0001.36,0000.84,0000.68,-000.12,0000.04,0000.06,0000.09,-000.17,0000.26,18.7,24.8,10.4,07.2,0674.7,31.0
2021-07-12T10:06:00Z,00000200,00000000,0001.04,0000.96,0000.65,-000.09,0000.36,0000.16,0000.15,0000.52,0000.08,18.8,24.8,10.5,07.3,0674.7,31.0
2021-07-12T10:07:00Z,00000200,00000000,0001.32,0000.43,0000.61,-000.04,0000.13,0000.22,0000.13,0000.01,0000.16,18.8,24.8,10.6,07.3,0674.6,31.0
2021-07-12T10:08:00Z,00000200,00000000,0000.73,0000.78,0000.48,-000.06,-000.03,0000.18,0000.05,-000.06,-000.30,18.8,24.8,10.5,07.2,0674.6,31.0
2021-07-12T10:09:00Z,00000200,00000000,0001.31,0000.94,0000.38,-000.01,0000.19,0000.02,0000.10,0000.10,-000.01,18.8,24.8,10.3,07.1,0674.6,31.0
2021-07-12T10:10:00Z,00000200,00000000,0001.14,0000.84,0000.47,0000.14,0000.23,0000.36,-000.21,-000.17,0000.14,18.8,24.8,10.3,07.1,0674.6,31.0
2021-07-12T10:11:00Z,00000200,00000000,0001.67,0000.93,0000.48,0000.66,0000.02,-000.09,-000.03,0000.11,0000.21,18.8,24.8,10.2,07.1,0674.5,31.0
2021-07-12T10:12:00Z,00000200,00000000,0000.93,0000.92,0000.16,-000.27,0000.21,-000.34,0000.26,0000.30,-000.03,18.9,24.8,10.2,07.1,0674.5,31.0
2021-07-12T10:13:00Z,00000200,00000000,0000.99,0000.81,0000.11,-000.12,0000.28,0000.09,-000.17,-000.08,0000.36,18.9,24.8,10.2,07.1,0674.5,31.0
2021-07-12T10:14:00Z,00000200,00000000,0001.37,0000.66,0000.29,0000.14,0000.27,0000.01,0000.34,-000.21,-000.59,18.9,24.8,10.3,07.2,0674.5,31.0
2021-07-12T10:15:00Z,00000200,00000000,0000.50,0000.98,0000.20,-000.15,0000.07,0000.32,-000.16,0000.25,0000.55,18.9,24.8,10.0,07.0,0674.5,31.0
2021-07-12T10:16:00Z,00000200,00000000,0000.29,0000.78,0000.45,-000.31,0000.32,0000.30,0000.09,0000.15,-000.07,18.9,24.8,10.2,07.1,0674.5,31.0
2021-07-12T10:17:00Z,00000200,00000000,0000.90,0000.83,0000.43,0000.21,0000.17,-000.04,0000.32,0000.09,0000.08,18.9,24.8,10.2,07.1,0674.5,31.0
2021-07-12T10:18:00Z,00000200,00000000,0000.88,0000.78,0000.55,-000.17,-000.18,0000.49,0000.03,0000.14,0000.11,19.0,24.8,10.1,07.1,0674.4,31.0
2021-07-12T10:19:00Z,00000200,00000000,0001.04,0001.00,0000.31,0000.36,0000.35,0000.07,-000.00,-000.15,0000.30,19.0,24.8,10.0,07.0,0674.4,31.0
2021-07-12T10:20:00Z,00000200,00000000,0000.79,0000.70,0000.67,0000.31,0000.16,0000.41,0000.10,0000.06,-000.25,19.0,24.8,10.1,07.0,0674.4,31.0
2021-07-12T10:21:00Z,00000200,00000000,0001.25,0000.60,0000.52,-000.28,-000.04,0000.22,0000.11,0000.20,0000.16,19.0,24.8,10.2,07.1,0674.4,31.0
2021-07-12T10:22:00Z,00000200,00000000,0000.80,0000.89,0000.09,0000.01,-000.10,-000.08,0000.16,0000.15,0000.11,19.0,24.8,10.1,07.0,0674.4,31.0
2021-07-12T10:23:00Z,00000200,00000000,0000.98,0000.66,0000.52,0000.39,0000.19,0000.11,-000.01,0000.09,-000.20,19.0,24.8,09.9,07.0,0674.4,31.0
2021-07-12T10:24:00Z,00000200,00000000,0001.61,0000.88,0000.42,0000.39,0000.41,0000.15,0000.13,-000.15,0000.11,19.0,24.8,10.0,07.0,0674.4,31.0
2021-07-12T10:25:00Z,00000200,00000000,0002.27,0000.91,0000.31,0000.55,0000.38,0000.27,0000.07,0000.19,0000.05,19.0,24.8,10.2,07.1,0674.4,31.0
2021-07-12T10:26:00Z,00000200,00000000,0001.27,0000.86,0000.43,0000.11,0000.16,0000.44,-000.14,0000.10,0000.18,19.0,24.8,10.0,07.0,0674.4,31.0
2021-07-12T10:27:00Z,00000200,00000000,0001.07,0000.51,0000.42,0000.32,0000.19,0000.13,-000.13,-000.06,0000.09,19.1,24.9,09.9,07.0,0674.4,31.0
2021-07-12T10:28:00Z,00000200,00000000,0001.06,0000.98,0000.41,-000.24,-000.02,0000.27,0000.40,-000.02,-000.31,19.1,24.8,10.0,07.0,0674.4,31.0
2021-07-12T10:29:00Z,00000200,00000000,0001.35,0000.91,0000.35,-000.29,0000.27,0000.37,0000.14,0000.12,0000.56,19.1,24.9,09.9,07.0,0674.4,31.0
2021-07-12T10:30:00Z,00000200,00000000,0001.74,0001.17,0000.61,0000.15,0000.30,0000.27,-000.04,0000.11,-000.13,19.1,24.9,10.0,07.0,0674.4,31.0
2021-07-12T10:31:00Z,00000200,00000000,0001.15,0000.64,0000.50,-000.21,0000.33,-000.09,0000.09,-000.01,0000.32,19.1,24.9,09.9,07.0,0674.4,31.0
2021-07-12T10:32:00Z,00000200,00000000,0001.15,0000.89,0000.37,-000.16,0000.03,0000.18,0000.12,0000.41,-000.16,19.1,24.9,09.8,06.9,0674.4,31.0
2021-07-12T10:33:00Z,00000200,00000000,0000.86,0000.68,0000.19,-000.04,0000.03,0000.17,-000.16,-000.02,0000.05,19.1,24.9,09.9,07.0,0674.4,31.0
2021-07-12T10:34:00Z,00000200,00000000,0001.32,0001.09,0000.13,0000.02,-000.01,0000.11,0000.35,0000.08,-000.11,19.1,24.9,09.8,06.9,0674.4,31.0
2021-07-12T10:35:00Z,00000200,00000000,0001.35,0000.81,0000.19,0000.17,0000.33,0000.24,0000.01,0000.00,0000.12,19.1,24.9,09.7,06.9,0674.4,31.0
2021-07-12T10:36:00Z,00000200,00000000,0000.69,0000.89,0000.86,-000.25,0000.24,0000.38,-000.06,-000.10,-000.02,19.1,24.9,09.7,06.9,0674.5,31.0
2021-07-12T10:37:00Z,00000200,00000000,0000.98,0001.11,0000.12,0000.23,0000.06,0000.27,0000.36,0000.15,-000.04,19.1,24.9,09.8,06.9,0674.4,31.0
2021-07-12T10:38:00Z,00000200,00000000,0000.61,0000.91,0000.12,0000.36,0000.08,-000.23,-000.01,0000.04,0000.34,19.2,24.9,09.8,06.9,0674.5,31.0
2021-07-12T10:39:00Z,00000200,00000000,0001.32,0000.90,0000.32,0000.19,0000.33,0000.05,-000.14,0000.03,0000.22,19.2,24.9,09.8,06.9,0674.4,31.0
2021-07-12T10:40:00Z,00000200,00000000,0000.76,0000.99,0000.16,-000.25,0000.37,0000.00,0000.16,-000.12,-000.15,19.1,24.9,09.7,06.9,0674.4,31.0
2021-07-12T10:41:00Z,00000200,00000000,0000.21,0000.67,0000.14,0000.27,0000.11,-000.10,0000.09,0000.46,-000.12,19.2,24.9,09.7,06.8,0674.4,31.0
2021-07-12T10:42:00Z,00000200,00000000,0001.05,0001.11,0000.14,0000.07,0000.39,-000.03,0000.21,-000.14,0000.45,19.2,24.9,09.7,06.9,0674.4,31.0
2021-07-12T10:43:00Z,00000200,00000000,0000.87,0000.95,0000.09,0000.06,0000.07,-000.01,0000.31,0000.29,0000.06,19.2,24.9,09.9,07.0,0674.4,31.0
2021-07-12T10:44:00Z,00000200,00000000,0001.36,0000.85,0000.63,-000.01,0000.16,0000.09,-000.09,0000.09,0000.11,19.2,24.9,09.8,06.9,0674.4,31.0
2021-07-12T10:45:00Z,00000200,00000000,0000.99,0001.09,0000.41,-000.15,0000.21,0000.28,0000.06,-000.22,-000.17,19.2,24.9,10.0,07.0,0674.4,31.0
2021-07-12T10:46:00Z,00000200,00000000,0002.14,0000.84,0000.22,-000.48,0000.42,0000.32,-000.05,0000.23,0000.21,19.2,24.9,10.0,07.0,0674.5,31.0
2021-07-12T10:47:00Z,00000200,00000000,0001.14,0000.34,0000.50,-000.13,0000.42,0000.29,0000.29,0000.30,0000.26,19.2,24.9,09.8,06.9,0674.5,31.0
2021-07-12T10:48:00Z,00000200,00000000,0001.29,0000.79,0000.27,0000.29,0000.15,0000.05,0000.01,-000.05,-000.18,19.2,25.0,10.0,07.1,0674.4,31.0
2021-07-12T10:49:00Z,00000200,00000000,0001.65,0000.84,0000.43,-000.30,0000.32,0000.10,0000.21,0000.20,-000.12,19.2,24.9,10.0,07.1,0674.4,31.0
2021-07-12T10:50:00Z,00000200,00000000,0001.41,0000.89,0000.54,-000.02,0000.35,0000.34,0000.00,-000.13,0000.18,19.2,25.0,09.9,07.0,0674.4,31.0
2021-07-12T10:51:00Z,00000200,00000000,0001.02,0000.95,0000.58,0000.04,0000.16,0000.36,-000.02,-000.21,0000.23,19.3,25.0,09.8,06.9,0674.4,31.0
2021-07-12T10:52:00Z,00000200,00000000,0001.14,0000.85,0000.17,0000.46,0000.22,-000.05,-000.10,0000.24,0000.04,19.3,25.0,09.8,06.9,0674.4,31.0
2021-07-12T10:53:00Z,00000200,00000000,0001.10,0000.84,0000.16,-000.09,0000.05,-000.02,0000.30,0000.41,-000.09,19.3,25.0,09.8,06.9,0674.4,31.0
2021-07-12T10:54:00Z,00000200,00000000,0001.49,0000.70,0000.21,-000.09,0000.23,0000.47,0000.10,-000.03,-000.09,19.3,25.0,09.8,06.9,0674.4,31.0
2021-07-12T10:55:00Z,00000200,00000000,0001.35,0001.03,0000.29,0000.31,0000.19,0000.17,0000.03,0000.04,0000.35,19.3,25.0,09.8,06.9,0674.4,31.0
2021-07-12T10:56:00Z,00000200,00000000,0000.70,0000.71,0000.63,0000.24,-000.08,0000.02,0000.20,-000.11,0000.24,19.3,25.0,09.9,07.0,0674.4,31.0
2021-07-12T10:57:00Z,00000200,40000000,,,,,,,-000.15,0000.06,-000.04,19.4,25.0,10.1,07.2,0674.4,31.0
2021-07-12T10:58:00Z,00000200,60000000,,,,,,,-000.05,-000.07,-000.11,19.2,25.1,09.8,06.8,0673.4,31.0
2021-07-12T10:59:00Z,00000200,20000000,,,,,,,0000.06,-000.10,-000.09,19.2,25.2,09.8,06.8,0673.4,31.0
